Flag for U.S.A. Weather past 2 weeks in El Monte, California, U.S.A.

Now
55 °F

Clear.


Feels Like: 55 °F
Forecast: 50 / 70 °F
Wind: No wind

Location: Fullerton Municipal Airport

Current Time: Dec 21, 2014 at 12:45:31 AM

Latest Report: Dec 20, 2014 at 11:53 PM


Visibility: 5 mi

Pressure: 30.14 "Hg

Humidity: 80%

Dew point: 49 °F

Location of El MonteLocation

Historic Weather in El Monte — Graph

°F

El Monte temperature yesterday

Maximum temperature yesterday: 64 °F (at 1:53 PM)
Minimum temperature yesterday: 50 °F (at 3:53 AM)
Average temperature yesterday: 57 °F

Past Weeks' High & Low Weather Summary

 TemperatureHumidityPressure
High80 °F (Dec 8, 1:53 PM)93% (Dec 9, 8:00 AM)30.23 "Hg (Dec 9, 8:00 AM)
Low47 °F (Dec 14, 5:53 AM)26% (Dec 8, 1:53 PM)29.82 "Hg (Dec 12, 3:53 AM)
Average60 °F71%30.06 "Hg
* Reported Dec 5 11:53 PM — Dec 20 11:53 PM, El Monte, Weather by CustomWeather, © 2014

Note: Actual official high and low records may vary slightly from our data, if they occured in-between our weather recording intervals... More about our weather records

Advertising

El Monte weather history for previous 24 hours

 ConditionsComfort  
Time TempWeatherWind HumidityBarometerVisibility
11:53 PM
Dec 20
55 °FClear.No wind80%30.14 "Hg5 mi
10:53 PM58 °FPassing clouds.3 mph75%30.14 "Hg7 mi
9:53 PM58 °FPassing clouds.6 mph75%30.14 "Hg9 mi
8:53 PM59 °FPassing clouds.No wind75%30.14 "Hg9 mi
7:53 PM59 °FPassing clouds.5 mph78%30.14 "Hg9 mi
6:53 PM61 °FOvercast.No wind72%30.14 "Hg10 mi
5:53 PM62 °FOvercast.3 mph70%30.12 "Hg10 mi
4:53 PM62 °FOvercast.No wind70%30.13 "Hg9 mi
3:53 PM63 °FPartly sunny.3 mph63%30.11 "Hg8 mi
2:53 PM63 °FScattered clouds.3 mph63%30.10 "Hg9 mi
1:53 PM64 °FScattered clouds.No wind58%30.11 "Hg10 mi
12:53 PM63 °FPartly sunny.No wind58%30.14 "Hg10 mi
11:53 AM62 °FSunny.No wind58%30.14 "Hg10 mi
10:53 AM62 °FSunny.No wind60%30.17 "Hg9 mi
9:53 AM59 °FSunny.5 mph72%30.18 "Hg7 mi
8:53 AM55 °FSunny.No wind80%30.19 "Hg5 mi
7:53 AM51 °FFog.3 mph86%30.17 "Hg4 mi
6:53 AM50 °FFog.No wind86%30.17 "Hg5 mi
5:53 AM50 °FFog.No wind86%30.14 "Hg5 mi
4:53 AM50 °FFog.3 mph86%30.12 "Hg6 mi
3:53 AM50 °FFog.No wind86%30.14 "Hg6 mi
2:53 AM51 °FClear.No wind86%30.15 "Hg8 mi
1:53 AM51 °FClear.3 mph89%30.14 "Hg7 mi
12:53 AM52 °FClear.No wind86%30.16 "Hg7 mi
Weather by CustomWeather, © 2014

See weather overviewHow to use our weather pages